Regional Weather Roundup
Issued by NWS

Home | Current Version | Previous Version | Graphics & Text | Print | Product List | Glossary On
Versions: 1 2 3 4 5 6 7 8 9 10 11 12 13 14 15 16 17 18 19 20 21 22 23 24 25 26 27 28 29 30 31 32 33 34 35 36 37 38 39 40 41 42 43 44 45 46 47 48 49 50
000
ASUS43 KOAX 201710
RWRNE

WEATHER ROUNDUP FOR NEBRASKA
NATIONAL WEATHER SERVICE OMAHA NE
1200 PM CDT SUN APR 20 2014

NOTES: SATELLITE DATA IS BEING USED TO AUGMENT CLOUD COVER ABOVE
       12000 FEET.
       "FAIR" INDICATES FEW OR NO CLOUDS BELOW 12,000 FEET WITH NO
       SIGNIFICANT WEATHER AND/OR OBSTRUCTIONS TO VISIBILITY.

  * THESE STATIONS DO NOT REPORT WEATHER SUCH AS RAIN...SNOW OR FOG.

NEZ001>004-019>022-054>056-201800-
NEBRASKA PANHANDLE

CITY           SKY/WX    TMP DP  RH WIND       PRES   REMARKS
SCOTTSBLUFF    SUNNY     70  42  36 W10       30.00F
ALLIANCE       SUNNY     70  41  34 SW12G17   29.99S
CHADRON        SUNNY     69  42  37 W9        29.95S
KIMBALL        MOSUNNY   67  33  28 NW5       30.04S
SIDNEY         CLOUDY    64  43  46 SW9       30.04F
$$

NEZ057>060-069>072-079>082-201800-
SOUTHWEST NEBRASKA

CITY           SKY/WX    TMP DP  RH WIND       PRES   REMARKS
NORTH PLATTE   PTSUNNY   68  48  48 VRB6      30.00F
IMPERIAL       PTSUNNY   63  47  55 VRB5      30.01F
LEXINGTON      PTSUNNY   65  49  57 CALM      30.00F
MCCOOK         MOSUNNY   62  51  67 S3        30.01S
OGALLALA       MOSUNNY   66  44  44 CALM      30.01F
$$

NEZ005>010-023>029-035>040-094-201800-
NORTH CENTRAL NEBRASKA

CITY           SKY/WX    TMP DP  RH WIND       PRES   REMARKS
VALENTINE      SUNNY     71  40  32 S13       29.97F
AINSWORTH      SUNNY     71  43  36 SE12G21   29.99S
BROKEN BOW     PTSUNNY   68  48  48 E7        29.99F
O`NEILL        MOSUNNY   71  40  32 CALM      30.00S
ORD            PTSUNNY   73  48  41 VRB3      29.97F
THEDFORD       SUNNY     71  43  36 SE13      30.01F
$$

NEZ041-046>049-061>064-073>077-083>087-201800-
SOUTH CENTRAL NEBRASKA

CITY           SKY/WX    TMP DP  RH WIND       PRES   REMARKS
GRAND ISLAND   MOSUNNY   75  51  43 SW14      29.99S
AURORA         MOSUNNY   75  50  41 SW14      29.99R
HASTINGS       MOSUNNY   74  49  41 SW8G18    29.98F
HEBRON         PTSUNNY   76  52  43 SW13      30.00F
HOLDREGE       MOSUNNY   70  51  51 SW8       29.99F
KEARNEY *      MOSUNNY   70  52  52 W9        30.00S
YORK           MOSUNNY   75  50  41 SW14      29.98S
$$

NEZ011>018-030>034-042>045-201800-
NORTHEAST NEBRASKA

CITY           SKY/WX    TMP DP  RH WIND       PRES   REMARKS
NORFOLK        MOSUNNY   69  50  50 SE3       29.97S
ALBION         PTSUNNY   66  46  48 CALM      29.98F
BLAIR          MOSUNNY   75  50  42 SW10G16   29.98F
COLUMBUS *     MOSUNNY   72  54  53 SW3       29.98F
FREMONT        MOSUNNY   77  50  39 W12       29.97F
TEKAMAH        MOSUNNY   78  51  38 S9        29.96F
$$

NEZ050>053-065>068-078-088>093-201800-
SOUTHEAST NEBRASKA

CITY           SKY/WX    TMP DP  RH WIND       PRES   REMARKS
LINCOLN        MOSUNNY   79  50  36 SW15      29.98F
OMAHA EPPLEY   CLOUDY    75  50  41 SW9       29.98F
BEATRICE       PTSUNNY   75  52  43 SW15      30.01R
FALLS CITY     MOSUNNY   80  54  40 SW17G25   30.01F
NEBRASKA CITY  PTSUNNY   78  51  38 SW16G23   30.01S
PLATTSMOUTH    PTSUNNY   77  48  36 S10G16    30.00F
$$

NEZ044-045-051>053-067-201800-
OMAHA AREA

CITY           SKY/WX    TMP DP  RH WIND       PRES   REMARKS
OMAHA EPPLEY   CLOUDY    75  50  41 SW9       29.98F
BLAIR          MOSUNNY   75  50  42 SW10G16   29.98F
FREMONT        MOSUNNY   77  50  39 W12       29.97F
MILLARD        MOSUNNY   73  52  46 S6        29.99S
OFFUTT AFB     MOSUNNY   76  53  45 W5        29.99F
PLATTSMOUTH    PTSUNNY   77  48  36 S10G16    30.00F
WAHOO          FAIR      76  48  36 SW8       29.97F
$$



USA.gov is the U.S. government's official web portal to all federal, state and local government web resources and services.